Change the Weather History Date:

Monday, September 2, 2013

  Actual Average Record
Temperature  
Mean Temperature 73 °F 64 °F  
Max Temperature 80 °F 73 °F 96 °F (1953)
Min Temperature 65 °F 55 °F 39 °F (2001)
Degree Days  
Heating Degree Days 0 3  
Month to date heating degree days 0 6  
Since 1 July heating degree days 51 69  
Cooling Degree Days 8 2  
Month to date cooling degree days 17 4  
Year to date cooling degree days 444 352  
Growing Degree Days 22 (Base 50)    
Moisture  
Dew Point 65 °F    
Average Humidity 84    
Maximum Humidity 100    
Minimum Humidity 67    
Precipitation  
Precipitation 0.76 in 0.12 in 1.65 in (1979)
Month to date precipitation 0.76 0.23  
Year to date precipitation 31.05 26.44  
Snow  
Snow 0.00 in 0.00 in 0.00 in (2002)
Month to date snowfall 0.0 0.0  
Since 1 July snowfall 0.0 0.0  
Since 1 September snowfall 0.0 0.0  
Snow Depth 0.00 in    
Sea Level Pressure  
Sea Level Pressure 29.80 in    
Wind  
Wind Speed 6 mph (South)    
Max Wind Speed 18 mph    
Max Gust Speed 25 mph    
Visibility 6 miles    
Events Fog , Rain , Thunderstorm    
T = Trace of Precipitation, MM = Missing Value Source: NWS Daily Summary

Daily Weather History Graph

Daily Weather History Graph

Search for Another Location

Airport or City:

Trip Planner

Search our weather history database for the weather conditions in past years. The results will help you decide how hot, cold, wet, or windy it might be!

Date:

Astronomy

Sep. 02, 2013 Rise Set
Actual Time 6:30 AM EDT 7:35 PM EDT
Civil Twilight 6:01 AM EDT 8:04 PM EDT
Nautical Twilight 5:27 AM EDT 8:38 PM EDT
Astronomical Twilight 4:51 AM EDT 9:14 PM EDT
Moon 3:43 AM EDT (9/2) 5:49 PM EDT (9/2)
Length of Visible Light 14h 02m
Length of Day
13h 05m
Waning Crescent, 8% of the Moon is Illuminated
Sep 2
Waning Crescent
Sep 5
New
Sep 12
First Quarter
Sep 19
Full
Sep 26
Last Quarter

Hourly Weather History & Observations

Time (EDT) Temp. Dew Point Humidity Pressure Visibility Wind Dir Wind Speed Gust Speed Precip Events Conditions
12:53 AM 71.1 °F 66.9 °F 87% 29.81 in 6.0 mi South 4.6 mph - N/A   Partly Cloudy
1:22 AM 71.6 °F 66.2 °F 83% 29.83 in 6.0 mi SSW 3.5 mph - N/A Thunderstorm Mostly Cloudy
1:37 AM 71.6 °F 66.2 °F 83% 29.82 in 6.0 mi Calm Calm - N/A   Scattered Clouds
1:53 AM 71.1 °F 66.9 °F 87% 29.78 in 6.0 mi Calm Calm - N/A   Clear
2:27 AM 69.8 °F 66.2 °F 88% 29.81 in 4.0 mi SE 4.6 mph - N/A   Mostly Cloudy
2:53 AM 69.1 °F 66.9 °F 93% 29.78 in 3.0 mi South 3.5 mph - N/A Thunderstorm Overcast
3:11 AM 69.8 °F 66.2 °F 88% 29.83 in 4.0 mi WNW 8.1 mph - 0.00 in Rain , Thunderstorm Light Thunderstorms and Rain
3:14 AM 69.8 °F 66.2 °F 88% 29.83 in 4.0 mi NNW 10.4 mph - 0.00 in Rain , Thunderstorm Light Thunderstorms and Rain
3:27 AM 66.2 °F 64.4 °F 94% 29.84 in 2.5 mi NW 9.2 mph - 0.05 in Rain , Thunderstorm Heavy Thunderstorms and Rain
3:36 AM 66.2 °F 64.4 °F 94% 29.84 in 1.2 mi Variable 6.9 mph - 0.14 in Rain , Thunderstorm Heavy Thunderstorms and Rain
3:43 AM 66.2 °F 64.4 °F 94% 29.83 in 0.8 mi WNW 4.6 mph - 0.30 in Rain , Thunderstorm Heavy Thunderstorms and Rain
3:46 AM 66.2 °F 64.4 °F 94% 29.83 in 1.0 mi NW 3.5 mph - 0.35 in Rain , Thunderstorm Heavy Thunderstorms and Rain
3:53 AM 66.0 °F 64.0 °F 93% 29.80 in 3.0 mi NW 5.8 mph - 0.37 in Rain , Thunderstorm Light Rain
4:02 AM 66.2 °F 64.4 °F 94% 29.83 in 1.8 mi NW 4.6 mph - 0.04 in Rain , Thunderstorm Heavy Thunderstorms and Rain
4:15 AM 66.2 °F 64.4 °F 94% 29.82 in 3.0 mi North 8.1 mph - 0.20 in Rain , Thunderstorm Light Rain
4:42 AM 64.4 °F 64.4 °F 100% 29.82 in 10.0 mi NE 4.6 mph - 0.20 in   Overcast
4:53 AM 64.9 °F 64.0 °F 97% 29.79 in 10.0 mi East 4.6 mph - 0.20 in   Overcast
5:47 AM 64.4 °F 64.4 °F 100% 29.82 in 1.5 mi SSE 4.6 mph - 0.00 in   Overcast
5:53 AM 64.9 °F 64.0 °F 97% 29.78 in 0.5 mi SE 5.8 mph - 0.00 in Fog Fog
6:00 AM 64.4 °F 64.4 °F 100% 29.82 in 0.2 mi SE 5.8 mph - N/A Fog Fog
6:33 AM 64.4 °F 64.4 °F 100% 29.82 in 0.5 mi SE 5.8 mph - 0.00 in Fog Fog
6:53 AM 64.9 °F 64.0 °F 97% 29.80 in 0.2 mi SSE 5.8 mph - 0.00 in Fog Fog
7:04 AM 64.4 °F 64.4 °F 100% 29.82 in 1.0 mi SSE 4.6 mph - N/A   Overcast
7:13 AM 66.2 °F 64.4 °F 94% 29.82 in 2.0 mi South 4.6 mph - N/A   Overcast
7:20 AM 66.2 °F 64.4 °F 94% 29.82 in 0.8 mi South 3.5 mph - N/A   Overcast
7:44 AM 66.2 °F 64.4 °F 94% 29.83 in 1.2 mi SSE 4.6 mph - N/A   Overcast
7:53 AM 66.0 °F 64.9 °F 96% 29.80 in 2.0 mi South 5.8 mph - 0.00 in Rain Light Rain
8:01 AM 66.2 °F 64.4 °F 94% 29.83 in 4.0 mi South 4.6 mph - 0.00 in   Overcast
8:06 AM 66.2 °F 64.4 °F 94% 29.83 in 4.0 mi South 6.9 mph - 0.00 in Thunderstorm Overcast
8:23 AM 68.0 °F 66.2 °F 94% 29.83 in 4.0 mi Calm Calm - 0.00 in   Overcast
8:25 AM 68.0 °F 66.2 °F 94% 29.83 in 4.0 mi Variable 3.5 mph - 0.00 in Thunderstorm Overcast
8:39 AM 66.2 °F 62.6 °F 88% 29.83 in 9.0 mi East 6.9 mph - 0.00 in Thunderstorm Thunderstorm
8:53 AM 66.9 °F 64.0 °F 90% 29.81 in 10.0 mi NNE 5.8 mph - 0.00 in Thunderstorm Overcast
9:09 AM 68.0 °F 64.4 °F 88% 29.83 in 10.0 mi East 4.6 mph - N/A Thunderstorm Overcast
9:19 AM 68.0 °F 64.4 °F 88% 29.84 in 10.0 mi East 3.5 mph - N/A Thunderstorm Thunderstorm
9:31 AM 66.2 °F 64.4 °F 94% 29.85 in 3.0 mi North 10.4 mph - 0.01 in Rain , Thunderstorm Light Thunderstorms and Rain
9:33 AM 66.2 °F 64.4 °F 94% 29.85 in 2.0 mi North 9.2 mph - 0.02 in Rain , Thunderstorm Thunderstorms and Rain
9:49 AM 66.2 °F 64.4 °F 94% 29.85 in 6.0 mi NNE 6.9 mph - 0.05 in Rain , Thunderstorm Light Rain
9:53 AM 66.9 °F 64.9 °F 93% 29.82 in 7.0 mi Variable 3.5 mph - 0.05 in Rain , Thunderstorm Light Rain
10:11 AM 68.0 °F 64.4 °F 88% 29.84 in 7.0 mi East 4.6 mph - 0.01 in Thunderstorm Thunderstorm
10:42 AM 68.0 °F 66.2 °F 94% 29.83 in 3.0 mi SSE 8.1 mph - 0.03 in Rain Light Rain
10:53 AM 69.1 °F 66.0 °F 90% 29.79 in 9.0 mi SSE 10.4 mph - 0.04 in   Mostly Cloudy
11:53 AM 73.0 °F 68.0 °F 84% 29.78 in 9.0 mi South 8.1 mph - N/A   Clear
12:53 PM 75.0 °F 68.0 °F 79% 29.76 in 8.0 mi SSW 6.9 mph - N/A   Clear
1:37 PM 78.8 °F 68.0 °F 69% 29.79 in 10.0 mi Variable 5.8 mph - N/A   Mostly Cloudy
1:51 PM 78.8 °F 68.0 °F 69% 29.79 in 10.0 mi SSW 6.9 mph - N/A   Scattered Clouds
1:53 PM 78.1 °F 68.0 °F 71% 29.75 in 10.0 mi SW 6.9 mph - N/A   Scattered Clouds
2:53 PM 79.0 °F 68.0 °F 69% 29.73 in 10.0 mi SSW 8.1 mph - N/A   Mostly Cloudy
3:53 PM 78.1 °F 68.0 °F 71% 29.72 in 10.0 mi SW 3.5 mph - N/A   Mostly Cloudy
4:53 PM 79.0 °F 66.9 °F 66% 29.70 in 10.0 mi SSW 6.9 mph - N/A   Partly Cloudy
5:04 PM 78.8 °F 66.2 °F 65% 29.73 in 10.0 mi SW 9.2 mph - N/A Thunderstorm Partly Cloudy
5:18 PM 78.8 °F 66.2 °F 65% 29.72 in 10.0 mi SW 6.9 mph - N/A   Partly Cloudy
5:53 PM 75.9 °F 66.9 °F 74% 29.68 in 10.0 mi SW 6.9 mph - N/A   Scattered Clouds
6:53 PM 75.0 °F 68.0 °F 79% 29.69 in 10.0 mi WSW 3.5 mph - N/A   Scattered Clouds
7:53 PM 73.9 °F 66.0 °F 76% 29.70 in 10.0 mi WNW 5.8 mph - N/A   Partly Cloudy
8:53 PM 68.0 °F 62.1 °F 81% 29.74 in 10.0 mi North 5.8 mph - N/A   Partly Cloudy
9:53 PM 66.9 °F 61.0 °F 81% 29.76 in 10.0 mi NE 6.9 mph - N/A   Overcast
10:53 PM 68.0 °F 62.1 °F 81% 29.78 in 10.0 mi North 5.8 mph - N/A   Overcast
11:34 PM 66.2 °F 62.6 °F 88% 29.81 in 2.0 mi Calm Calm - 0.06 in Rain Light Rain
11:38 PM 66.2 °F 62.6 °F 88% 29.80 in 6.0 mi North 3.5 mph - 0.06 in Rain Light Rain
11:53 PM 66.0 °F 63.0 °F 90% 29.77 in 8.0 mi Calm Calm - 0.07 in Rain Light Rain